Location: Unnamed
(42.1164°N, 2.7652°E)
Time: 21:20:47
(UTC+02:00)

ISS - Pass Details

Date: 12 May 2021
Orbit: 417 x 422 km, 51.6° (Epoch: 14 June)

Event Time Altitude Azimuth Distance (km) Brightness Sun altitude
Exits shadow 02:49:55 16° 341° (NNW) 1,199 -0.9 -27.9°
Maximum altitude 02:50:33 17° 355° (N) 1,169 -0.8 -27.9°
Drops below altitude 10° 02:52:49 10° 37° (NE) 1,509 -0.1 -27.8°
Sets 02:55:29 0° 59° (ENE) 2,375 0.8 -27.6°
